Wind_Speed
22 23 23 24 25 24 24 25 25 25 25 24 24 23 23 23 22 21 21 21 21 21 20 20 20 21 21 22 23 24 25 26 25 25 26 26 26 26 25 24 24 24 24
21 22 23 24 24 24 24 24 24 24 23 23 22 21 20 20 19 19 18 18 18 18 19 19 19 20 20 21 21 22 23 23 24 23 23 24 24 24 24 24 23 23 23
21 22 23 23 23 23 23 23 22 22 21 21 20 19 19 19 18 17 16 16 17 17 18 19 19 19 20 20 21 21 21 22 23 23 23 23 23 23 23 23 23 23 22
21 21 21 21 21 21 21 21 21 20 20 20 19 19 18 18 17 16 16 16 16 17 17 18 19 20 20 20 19 19 20 20 21 21 22 21 22 22 22 22 22 22 22
20 20 19 19 19 19 19 19 18 18 18 18 17 16 16 16 15 15 15 15 15 15 16 17 17 18 18 18 17 17 18 18 18 18 19 19 19 20 20 20 20 20 20
18 18 18 17 17 17 17 17 17 17 16 16 15 14 15 14 14 14 14 14 14 14 14 14 15 15 16 15 15 16 16 17 17 17 17 17 18 19 19 19 19 19 19
16 16 16 15 15 16 16 16 16 16 15 15 14 14 13 13 12 12 13 13 13 14 14 13 13 13 14 14 14 14 14 14 14 14 14 15 16 16 17 17 17 18 18
14 14 14 14 14 14 15 15 14 14 14 13 13 12 12 12 12 12 12 12 12 12 12 11 11 11 12 12 11 11 11 11 11 11 12 13 13 13 14 14 15 15 15
13 13 13 13 14 14 14 14 14 14 13 13 12 12 12 12 12 11 10 10 10 10 9 9 9 9 9 8 8 9 8 8 9 9 10 10 11 11 11 12 12 12 11
12 13 13 13 13 13 13 13 13 13 13 12 11 11 11 11 10 10 10 10 9 8 8 7 7 7 6 6 6 6 6 7 7 8 8 8 8 9 9 9 9 9 8
12 12 13 12 12 12 12 12 12 12 12 12 11 11 11 11 10 9 10 9 8 7 6 6 5 5 4 3 3 4 5 6 6 6 6 6 7 7 7 7 7 7 7
11 11 12 11 11 11 11 11 11 12 12 11 11 11 11 11 10 10 9 8 7 6 6 5 4 4 3 2 1 1 2 3 4 4 4 4 5 5 5 5 6 6 6
11 11 11 11 10 10 10 10 11 12 12 11 11 11 11 11 11 10 9 8 7 7 7 6 5 4 4 3 2 2 2 2 2 2 2 3 3 4 4 4 4 5 5
11 11 11 10 10 9 9 9 10 11 11 11 11 11 11 11 11 10 10 9 9 9 8 7 7 6 5 4 3 3 3 2 2 2 2 2 2 2 2 3 3 3 4
10 10 11 10 10 10 9 9 9 10 10 10 11 11 11 11 11 10 9 9 9 9 9 8 7 7 6 5 5 4 3 3 3 2 1 1 1 2 2 1 2 3 4
9 10 10 10 10 10 10 9 9 9 10 10 11 10 10 10 10 10 9 9 9 9 9 9 8 8 7 6 6 5 4 3 3 2 1 1 1 1 2 2 3 4 5
9 9 9 9 9 10 10 10 9 9 9 10 10 10 10 10 10 10 9 9 9 9 8 8 8 7 6 6 5 5 4 3 2 2 2 1 1 1 2 3 4 5 7
8 8 9 9 9 9 10 10 9 9 9 9 10 10 10 10 10 10 10 9 9 9 8 8 7 6 6 5 5 4 4 3 3 2 2 2 3 3 4 5 6 8 8
8 8 8 8 9 9 9 9 9 8 8 9 9 10 10 10 10 9 9 10 9 9 8 8 7 6 6 5 5 4 3 3 3 3 4 5 5 5 6 7 8 9 10
8 8 8 8 8 8 8 9 8 7 7 7 8 8 9 9 9 9 9 9 9 9 9 8 7 7 6 5 4 4 4 4 4 5 6 6 7 7 8 9 10 11 12
8 8 8 8 8 8 9 9 8 7 7 7 7 7 7 7 8 8 9 9 9 9 9 9 8 8 6 5 5 5 5 6 7 7 8 8 9 10 11 11 12 13 15
9 9 9 9 9 9 9 9 8 7 7 6 6 7 7 7 8 8 8 8 9 9 9 9 9 9 8 7 6 6 7 8 9 10 10 11 11 12 13 14 15 16 17
8 8 8 9 9 9 9 9 8 8 7 6 6 7 7 8 8 9 9 10 10 10 10 10 10 10 10 9 10 10 10 11 12 12 13 14 14 15 16 17 18 19 20
8 8 9 9 10 10 10 9 8 8 7 7 7 8 8 9 10 10 10 11 11 12 12 12 12 12 12 12 13 13 14 14 15 16 16 17 18 18 19 20 21 22 22
9 9 10 10 11 11 10 10 9 9 9 10 10 10 11 11 11 11 12 12 13 13 14 14 14 15 15 16 16 16 16 17 18 18 19 20 20 21 22 22 23 23 24
11 11 12 12 12 12 12 12 11 11 12 12 13 13 13 13 13 14 14 15 15 15 16 16 17 17 18 18 19 19 20 21 21 22 22 23 23 24 24 25 25 26 27
Wind_Direction
299 301 302 303 303 304 304 303 302 301 300 301 302 299 296 294 291 288 284 281 276 272 271 270 269 267 266 264 261 259 258 258 257 256 255 255 256 255 256 256 257 258 257
302 303 304 305 305 305 305 305 304 303 303 304 304 302 300 296 293 290 287 283 277 273 273 272 271 270 269 266 262 260 258 256 255 253 254 255 254 254 255 254 256 256 256
304 304 304 306 307 308 308 307 306 306 307 306 305 304 302 299 296 292 288 285 279 274 273 273 272 271 270 268 265 262 259 255 252 252 253 253 252 252 253 254 256 257 258
305 306 306 306 308 310 310 311 310 309 309 307 305 305 304 301 297 291 291 287 282 278 275 273 272 271 271 270 265 262 260 258 256 254 251 250 251 251 252 254 256 256 259
309 310 309 310 312 314 315 316 317 314 312 310 309 307 305 303 302 298 295 290 285 281 279 277 274 271 270 269 266 263 260 258 257 253 250 250 251 252 253 254 256 256 259
314 315 315 316 318 320 321 321 321 321 320 317 312 310 309 305 303 301 299 295 291 288 287 283 276 271 268 267 267 265 261 258 256 254 251 250 250 252 254 255 256 255 257
317 319 321 323 324 325 324 324 325 325 326 325 321 318 315 312 308 305 303 301 296 293 290 285 280 275 270 269 267 263 260 258 255 252 249 248 248 251 252 254 255 255 257
324 325 325 323 324 326 328 330 330 330 331 330 327 322 321 321 318 315 312 308 303 298 294 291 287 284 277 272 264 260 256 252 248 244 243 245 246 250 250 251 254 255 254
331 329 329 330 329 330 332 334 335 334 334 334 332 330 329 328 326 323 319 318 314 309 303 295 291 286 278 274 263 256 252 247 241 239 240 243 246 247 247 249 249 251 249
333 331 332 334 335 335 338 340 341 341 342 342 342 341 340 341 339 337 333 330 329 325 318 310 305 298 285 278 267 251 245 244 242 240 241 242 244 242 242 243 241 242 249
333 334 336 337 339 341 342 346 349 349 351 354 355 354 353 351 349 346 346 347 348 346 341 336 332 323 307 293 271 248 242 238 236 236 235 237 237 236 237 237 238 244 249
342 344 346 347 347 348 352 355 358 360 2 4 4 2 0 359 356 355 358 359 1 3 4 4 2 3 2 350 321 221 218 219 214 212 218 226 229 228 235 242 240 240 249
351 351 353 353 354 357 2 6 8 7 7 10 11 10 10 9 9 11 15 18 16 19 24 26 34 47 51 57 82 120 132 142 162 183 213 220 224 231 237 241 240 241 242
355 354 355 357 359 359 3 8 9 8 10 12 12 13 12 12 15 19 23 27 30 31 33 40 47 55 61 61 75 99 108 119 131 157 193 205 210 212 221 228 235 236 242
357 358 2 4 5 7 7 7 6 5 7 10 12 14 14 18 23 26 30 33 34 37 43 45 45 50 55 60 64 68 80 97 102 110 125 154 179 190 206 227 243 257 271
360 1 4 8 12 15 13 8 4 6 9 11 13 16 20 26 28 32 36 38 38 42 42 44 45 44 51 56 58 58 66 76 75 76 76 134 164 213 240 262 276 283 287
2 6 9 10 12 14 13 12 13 15 14 14 17 20 24 26 29 31 34 35 35 38 36 36 36 39 50 51 50 53 57 64 56 47 33 13 326 301 290 290 293 294 297
5 11 15 15 13 14 16 17 21 22 21 21 23 26 26 26 27 32 36 33 31 31 31 32 33 36 38 39 43 44 43 43 29 15 2 342 328 318 312 308 306 305 306
8 10 11 12 15 18 19 19 19 21 23 25 26 31 31 29 31 32 31 28 26 25 25 29 28 25 22 22 25 22 20 18 4 348 342 334 326 321 315 311 311 310 310
14 13 12 12 14 17 17 14 13 15 16 19 22 25 25 24 24 24 23 23 24 25 23 20 16 11 10 8 2 355 350 344 335 329 326 321 316 314 313 310 309 310 310
14 14 12 13 15 14 13 13 11 10 11 14 18 19 20 20 18 17 17 17 16 15 12 7 1 356 352 344 337 331 327 322 320 319 316 311 308 309 309 309 309 310 310
9 8 9 10 8 8 7 5 3 1 2 4 4 2 1 2 3 2 0 358 357 355 353 350 346 342 338 331 323 321 319 315 313 312 312 309 308 309 310 309 310 310 310
1 1 360 359 358 356 354 353 352 352 350 348 346 344 342 343 343 345 347 345 344 342 341 341 337 332 329 324 319 318 313 309 308 308 307 307 307 306 307 307 307 309 309
350 350 348 347 346 344 342 339 336 334 331 330 329 328 325 322 323 324 326 326 327 328 328 328 325 323 320 317 312 308 307 305 303 304 303 301 301 302 302 303 304 305 307
337 337 337 336 334 333 331 329 326 323 320 317 315 315 316 316 316 316 315 315 315 316 316 316 314 312 312 312 310 307 305 304 303 303 303 302 301 301 302 302 303 304 305
328 328 328 328 327 325 324 323 320 318 316 314 312 310 310 310 310 310 310 309 308 308 308 308 308 307 307 307 307 305 303 303 303 302 301 301 300 301 301 301 301 302 303
Height
5796 5793 5790 5786 5783 5779 5776 5773 5769 5766 5762 5759 5756 5753 5750 5747 5745 5743 5741 5740 5739 5738 5738 5739 5738 5739 5739 5739 5739 5740 5741 5742 5743 5745 5746 5747 5748 5749 5750 5751 5752 5753 5754
5790 5787 5784 5780 5777 5773 5770 5767 5763 5760 5756 5753 5750 5747 5744 5741 5739 5737 5735 5734 5733 5732 5732 5732 5732 5732 5732 5732 5732 5733 5733 5734 5736 5737 5738 5739 5740 5742 5743 5744 5745 5746 5747
5785 5781 5778 5775 5771 5768 5764 5761 5757 5754 5751 5747 5744 5741 5739 5736 5734 5732 5730 5729 5727 5727 5726 5726 5726 5726 5725 5725 5725 5726 5726 5727 5728 5730 5731 5732 5733 5735 5736 5737 5738 5739 5740
5779 5776 5772 5769 5766 5762 5759 5755 5752 5748 5745 5742 5739 5736 5733 5731 5729 5727 5725 5724 5722 5722 5721 5720 5720 5719 5719 5719 5719 5719 5720 5720 5721 5723 5724 5725 5727 5728 5729 5731 5732 5733 5734
5774 5770 5767 5764 5760 5757 5754 5750 5747 5743 5740 5737 5734 5731 5729 5727 5724 5722 5721 5719 5718 5717 5716 5715 5714 5713 5713 5713 5713 5713 5713 5714 5715 5716 5717 5719 5720 5722 5723 5724 5725 5727 5727
5769 5766 5763 5759 5756 5753 5750 5747 5743 5740 5736 5733 5730 5727 5725 5723 5721 5719 5717 5715 5714 5712 5711 5710 5709 5708 5708 5708 5708 5708 5708 5709 5709 5710 5712 5713 5715 5716 5717 5718 5720 5721 5721
5765 5762 5759 5756 5753 5750 5747 5743 5740 5737 5733 5730 5727 5724 5722 5719 5717 5715 5713 5711 5709 5708 5707 5705 5704 5703 5703 5703 5703 5703 5703 5703 5704 5705 5706 5708 5709 5710 5712 5713 5714 5715 5716
5762 5759 5756 5754 5751 5747 5744 5741 5737 5734 5731 5728 5725 5722 5719 5717 5714 5712 5710 5708 5706 5704 5703 5701 5700 5700 5699 5699 5699 5699 5699 5699 5700 5701 5702 5703 5705 5706 5707 5708 5709 5710 5710
5760 5757 5754 5751 5748 5745 5742 5739 5735 5732 5729 5726 5723 5720 5717 5714 5712 5709 5707 5705 5703 5701 5700 5699 5697 5696 5696 5695 5696 5696 5696 5697 5697 5698 5699 5700 5701 5702 5703 5704 5705 5706 5707
5758 5755 5752 5749 5746 5743 5740 5737 5734 5731 5727 5724 5721 5718 5715 5713 5710 5708 5705 5703 5701 5699 5698 5696 5695 5694 5693 5693 5693 5693 5694 5695 5695 5696 5697 5698 5699 5700 5700 5701 5702 5703 5704
5756 5753 5750 5747 5744 5741 5739 5736 5733 5730 5727 5723 5720 5717 5714 5712 5709 5707 5704 5702 5700 5698 5696 5695 5694 5693 5692 5692 5692 5692 5692 5693 5694 5694 5695 5696 5697 5698 5698 5699 5700 5701 5702
5754 5751 5748 5746 5743 5740 5738 5735 5732 5729 5726 5723 5720 5717 5714 5712 5709 5706 5704 5702 5700 5698 5696 5695 5693 5692 5691 5691 5691 5691 5691 5692 5693 5693 5694 5695 5696 5697 5697 5698 5698 5699 5700
5753 5750 5748 5745 5742 5740 5737 5735 5732 5729 5726 5724 5721 5718 5715 5712 5709 5707 5704 5702 5700 5698 5696 5695 5694 5693 5692 5691 5691 5691 5692 5692 5692 5693 5694 5694 5695 5696 5696 5697 5697 5697 5698
5753 5750 5747 5744 5742 5739 5737 5735 5733 5730 5727 5725 5722 5719 5716 5713 5711 5708 5706 5704 5701 5699 5698 5696 5695 5694 5693 5693 5692 5692 5692 5693 5693 5693 5694 5694 5695 5695 5696 5696 5696 5696 5696
5752 5750 5747 5745 5742 5740 5737 5735 5733 5731 5728 5726 5723 5720 5717 5715 5712 5710 5707 5705 5703 5702 5700 5698 5697 5696 5695 5695 5694 5693 5693 5693 5694 5694 5694 5694 5695 5695 5695 5695 5695 5695 5695
5752 5749 5747 5745 5743 5740 5738 5736 5733 5731 5729 5726 5724 5721 5719 5716 5714 5712 5710 5707 5705 5704 5702 5701 5699 5698 5697 5696 5696 5695 5695 5695 5695 5695 5695 5695 5695 5695 5695 5695 5695 5695 5694
5752 5750 5747 5745 5743 5741 5739 5736 5734 5732 5730 5727 5725 5723 5720 5718 5716 5713 5711 5710 5708 5706 5705 5703 5702 5700 5699 5698 5698 5697 5697 5697 5696 5696 5696 5695 5695 5695 5695 5694 5694 5693 5692
5752 5750 5748 5746 5744 5742 5739 5737 5735 5733 5731 5729 5726 5724 5722 5720 5718 5715 5713 5712 5710 5708 5707 5705 5704 5702 5701 5700 5700 5699 5698 5698 5697 5697 5696 5696 5695 5695 5694 5693 5692 5691 5690
5752 5750 5748 5746 5744 5742 5740 5738 5736 5734 5732 5730 5728 5726 5724 5722 5720 5718 5716 5714 5712 5710 5708 5707 5705 5704 5703 5702 5701 5700 5699 5699 5698 5697 5697 5696 5695 5694 5693 5692 5691 5689 5688
5753 5751 5749 5747 5745 5743 5741 5739 5737 5735 5734 5732 5730 5728 5725 5723 5722 5720 5718 5716 5714 5712 5710 5708 5707 5705 5704 5703 5702 5701 5700 5699 5698 5697 5696 5695 5694 5692 5691 5690 5688 5687 5685
5753 5751 5750 5748 5746 5744 5742 5740 5738 5736 5735 5733 5731 5729 5727 5725 5723 5721 5719 5717 5715 5713 5712 5710 5708 5706 5705 5704 5702 5701 5700 5699 5697 5696 5695 5693 5692 5690 5689 5687 5685 5683 5681
5754 5752 5750 5748 5747 5745 5743 5741 5739 5737 5735 5733 5732 5730 5728 5726 5724 5722 5720 5718 5716 5714 5712 5711 5709 5707 5705 5703 5702 5700 5699 5697 5696 5694 5693 5691 5690 5688 5686 5684 5681 5679 5677
5754 5752 5751 5749 5747 5745 5743 5741 5739 5737 5736 5734 5732 5731 5729 5727 5725 5722 5721 5718 5716 5714 5712 5710 5708 5706 5704 5702 5701 5699 5697 5696 5694 5692 5690 5688 5686 5684 5682 5680 5677 5675 5672
5754 5752 5750 5748 5747 5745 5743 5741 5739 5737 5735 5733 5732 5730 5728 5726 5724 5722 5720 5718 5716 5713 5711 5709 5707 5705 5703 5701 5698 5696 5694 5692 5690 5688 5686 5684 5682 5679 5677 5675 5672 5669 5666
5753 5751 5749 5748 5746 5744 5742 5740 5738 5736 5734 5732 5730 5728 5726 5724 5722 5720 5718 5716 5714 5712 5709 5707 5705 5702 5700 5698 5695 5693 5691 5688 5686 5684 5681 5679 5676 5674 5671 5669 5666 5663 5660
5752 5750 5748 5746 5744 5742 5740 5738 5736 5734 5732 5730 5728 5725 5723 5721 5719 5717 5715 5713 5711 5708 5706 5704 5701 5699 5696 5693 5691 5688 5686 5683 5681 5678 5675 5673 5670 5667 5664 5662 5659 5656 5653